When you browse on this site, cookies collect data to enhance your experience and personalize the content and advertising you see.
Visit our Privacy Policy to learn more. By continuing to use the site, you agree to this use of cookies and data.

Hourly Weather Cuautepec de Hinojosa

Today, 12 August, Wednesday

Time Temperature Precipitation Wind Pressure Humidity
00:00 +13°C° 0 mm 0 mps 581 mmHg 95%
01:00 +12°C° 0 mm 0 mps 581 mmHg 95%
02:00 +12°C° 0 mm 0 mps 580 mmHg 95%
03:00 +11°C° 0 mm 0 mps 580 mmHg 95%
04:00 +11°C° 0 mm 0 mps 580 mmHg 95%
05:00 +12°C° 0 mm 1 mps 580 mmHg 96%
06:00 +14°C° 0 mm 1 mps 581 mmHg 88%
07:00 +16°C° 0 mm 1 mps 582 mmHg 81%
08:00 +19°C° 0 mm 1 mps 583 mmHg 73%
09:00 +19°C° 0.1 mm 2 mps 584 mmHg 69%
10:00 +20°C° 0.1 mm 3 mps 584 mmHg 66%
11:00 +22°C° 0.1 mm 3 mps 585 mmHg 62%
12:00 +21°C° 1.1 mm 3 mps 584 mmHg 69%
13:00 +20°C° 1.1 mm 3 mps 583 mmHg 75%
14:00 +19°C° 1.1 mm 3 mps 582 mmHg 82%
15:00 +18°C° 0.4 mm 3 mps 581 mmHg 84%
16:00 +17°C° 0.4 mm 3 mps 581 mmHg 87%
17:00 +17°C° 0.4 mm 2 mps 581 mmHg 89%
18:00 +16°C° 0.1 mm 2 mps 581 mmHg 91%
19:00 +15°C° 0.1 mm 1 mps 582 mmHg 93%
20:00 +15°C° 0.1 mm 1 mps 582 mmHg 95%
21:00 +14°C° 0 mm 1 mps 582 mmHg 96%
22:00 +14°C° 0 mm 1 mps 582 mmHg 96%
23:00 +13°C° 0 mm 1 mps 582 mmHg 96%

Tomorrow, 13 August, Thursday

Time Temperature Precipitation Wind Pressure Humidity
00:00 +13°C° 0 mm 1 mps 582 mmHg 95%
01:00 +13°C° 0 mm 1 mps 581 mmHg 94%
02:00 +12°C° 0 mm 1 mps 581 mmHg 94%
03:00 +12°C° 0 mm 1 mps 580 mmHg 92%
04:00 +12°C° 0 mm 1 mps 580 mmHg 90%
05:00 +10°C° 0 mm 0 mps 580 mmHg 88%
06:00 +13°C° 0 mm 1 mps 581 mmHg 81%
07:00 +16°C° 0 mm 1 mps 582 mmHg 74%
08:00 +19°C° 0 mm 1 mps 583 mmHg 67%
09:00 +19°C° 0 mm 2 mps 584 mmHg 64%
10:00 +20°C° 0 mm 3 mps 584 mmHg 61%
11:00 +21°C° 0 mm 3 mps 584 mmHg 58%
12:00 +21°C° 0.4 mm 4 mps 584 mmHg 63%
13:00 +20°C° 0.4 mm 4 mps 583 mmHg 69%
14:00 +19°C° 0.4 mm 4 mps 582 mmHg 74%
15:00 +18°C° 0.3 mm 4 mps 582 mmHg 79%
16:00 +17°C° 0.3 mm 3 mps 581 mmHg 84%
17:00 +16°C° 0.3 mm 3 mps 581 mmHg 89%
18:00 +15°C° 0.1 mm 2 mps 581 mmHg 92%
19:00 +14°C° 0.1 mm 1 mps 581 mmHg 94%
20:00 +13°C° 0.1 mm 1 mps 581 mmHg 97%
21:00 +13°C° 0 mm 1 mps 581 mmHg 97%
22:00 +12°C° 0 mm 1 mps 580 mmHg 96%
23:00 +12°C° 0 mm 1 mps 580 mmHg 95%

Day after tomorrow, 14 August, Friday

Time Temperature Precipitation Wind Pressure Humidity
00:00 +11°C° 0 mm 1 mps 580 mmHg 93%
01:00 +11°C° 0 mm 1 mps 579 mmHg 92%
02:00 +11°C° 0 mm 1 mps 579 mmHg 90%
03:00 +10°C° 0 mm 1 mps 579 mmHg 87%
04:00 +10°C° 0 mm 1 mps 579 mmHg 84%
05:00 +10°C° 0 mm 1 mps 579 mmHg 82%
06:00 +12°C° 0 mm 1 mps 580 mmHg 73%
07:00 +15°C° 0 mm 1 mps 582 mmHg 65%
08:00 +18°C° 0 mm 1 mps 583 mmHg 57%
09:00 +19°C° 0 mm 2 mps 583 mmHg 56%
10:00 +20°C° 0 mm 3 mps 584 mmHg 55%
11:00 +21°C° 0 mm 3 mps 584 mmHg 55%
12:00 +21°C° 0.6 mm 4 mps 583 mmHg 60%
13:00 +20°C° 0.6 mm 4 mps 582 mmHg 65%
14:00 +20°C° 0.6 mm 4 mps 582 mmHg 70%
15:00 +19°C° 0.4 mm 4 mps 581 mmHg 74%
16:00 +17°C° 0.4 mm 3 mps 581 mmHg 79%
17:00 +16°C° 0.4 mm 3 mps 580 mmHg 83%
18:00 +15°C° 0 mm 2 mps 580 mmHg 88%
19:00 +14°C° 0 mm 2 mps 580 mmHg 92%
20:00 +12°C° 0 mm 1 mps 580 mmHg 97%
21:00 +12°C° 0 mm 1 mps 580 mmHg 96%
22:00 +12°C° 0 mm 1 mps 580 mmHg 95%
23:00 +12°C° 0 mm 1 mps 580 mmHg 94%

15 August, Saturday

Time Temperature Precipitation Wind Pressure Humidity
00:00 +12°C° 0 mm 1 mps 580 mmHg 93%
01:00 +12°C° 0 mm 1 mps 580 mmHg 91%
02:00 +12°C° 0 mm 1 mps 580 mmHg 90%
03:00 +12°C° 0 mm 1 mps 580 mmHg 89%
04:00 +11°C° 0 mm 0 mps 580 mmHg 89%
05:00 +11°C° 0 mm 0 mps 580 mmHg 88%
06:00 +14°C° 0 mm 1 mps 581 mmHg 82%
07:00 +16°C° 0 mm 1 mps 582 mmHg 76%
08:00 +18°C° 0 mm 1 mps 583 mmHg 70%
09:00 +18°C° 0.3 mm 2 mps 583 mmHg 70%
10:00 +19°C° 0.3 mm 2 mps 583 mmHg 70%
11:00 +20°C° 0.3 mm 3 mps 583 mmHg 70%
12:00 +19°C° 1.5 mm 3 mps 583 mmHg 74%
13:00 +19°C° 1.5 mm 3 mps 582 mmHg 78%
14:00 +18°C° 1.5 mm 3 mps 581 mmHg 82%
15:00 +18°C° 0.8 mm 3 mps 581 mmHg 84%
16:00 +17°C° 0.8 mm 2 mps 581 mmHg 87%
17:00 +16°C° 0.8 mm 2 mps 580 mmHg 90%
18:00 +15°C° 0.1 mm 2 mps 581 mmHg 92%
19:00 +15°C° 0.1 mm 1 mps 581 mmHg 95%
20:00 +14°C° 0.1 mm 1 mps 581 mmHg 97%
21:00 +14°C° 0 mm 1 mps 581 mmHg 97%
22:00 +14°C° 0 mm 1 mps 581 mmHg 97%
23:00 +14°C° 0 mm 1 mps 581 mmHg 96%

16 August, Sunday

Time Temperature Precipitation Wind Pressure Humidity
00:00 +13°C° 0 mm 1 mps 581 mmHg 96%
01:00 +13°C° 0 mm 1 mps 580 mmHg 95%
02:00 +11°C° 0 mm 0 mps 580 mmHg 95%
03:00 +11°C° 0 mm 0 mps 580 mmHg 94%
04:00 +11°C° 0 mm 0 mps 579 mmHg 94%
05:00 +10°C° 0 mm 0 mps 579 mmHg 93%
06:00 +13°C° 0 mm 1 mps 581 mmHg 87%
07:00 +15°C° 0 mm 1 mps 582 mmHg 81%
08:00 +18°C° 0 mm 1 mps 583 mmHg 75%
09:00 +18°C° 0 mm 2 mps 583 mmHg 71%
10:00 +20°C° 0 mm 2 mps 584 mmHg 68%
11:00 +21°C° 0 mm 3 mps 584 mmHg 64%
12:00 +20°C° 0.7 mm 3 mps 583 mmHg 69%
13:00 +20°C° 0.7 mm 3 mps 582 mmHg 75%
14:00 +19°C° 0.7 mm 4 mps 581 mmHg 81%
15:00 +18°C° 0.5 mm 3 mps 581 mmHg 84%
16:00 +17°C° 0.5 mm 3 mps 581 mmHg 88%
17:00 +16°C° 0.5 mm 2 mps 580 mmHg 91%
18:00 +15°C° 0.1 mm 2 mps 581 mmHg 93%
19:00 +15°C° 0.1 mm 2 mps 581 mmHg 95%
20:00 +14°C° 0.1 mm 1 mps 581 mmHg 97%
21:00 +14°C° 0 mm 1 mps 581 mmHg 96%
22:00 +14°C° 0 mm 1 mps 581 mmHg 96%
23:00 +13°C° 0 mm 1 mps 581 mmHg 95%

17 August, Monday

Time Temperature Precipitation Wind Pressure Humidity
00:00 +13°C° 0 mm 1 mps 581 mmHg 94%
01:00 +13°C° 0 mm 1 mps 581 mmHg 94%
02:00 +13°C° 0 mm 1 mps 580 mmHg 94%
03:00 +12°C° 0 mm 1 mps 580 mmHg 94%
04:00 +11°C° 0 mm 1 mps 580 mmHg 95%
05:00 +11°C° 0 mm 1 mps 580 mmHg 96%
06:00 +13°C° 0 mm 1 mps 581 mmHg 87%
07:00 +15°C° 0 mm 1 mps 582 mmHg 78%
08:00 +18°C° 0 mm 1 mps 583 mmHg 70%
09:00 +18°C° 0 mm 2 mps 584 mmHg 65%
10:00 +20°C° 0 mm 3 mps 584 mmHg 61%
11:00 +21°C° 0 mm 4 mps 584 mmHg 56%
12:00 +21°C° 0.2 mm 4 mps 584 mmHg 63%
13:00 +20°C° 0.2 mm 4 mps 583 mmHg 69%
14:00 +19°C° 0.2 mm 4 mps 582 mmHg 75%
15:00 +19°C° 0.4 mm 4 mps 582 mmHg 79%
16:00 +18°C° 0.4 mm 3 mps 581 mmHg 82%
17:00 +17°C° 0.4 mm 3 mps 581 mmHg 85%
18:00 +16°C° 0 mm 2 mps 581 mmHg 89%
19:00 +14°C° 0 mm 2 mps 581 mmHg 93%
20:00 +13°C° 0 mm 1 mps 581 mmHg 97%
21:00 +13°C° 0 mm 1 mps 581 mmHg 96%
22:00 +13°C° 0 mm 1 mps 581 mmHg 95%
23:00 +12°C° 0 mm 1 mps 581 mmHg 95%
Show more